{"data":{"norad_id":50479,"epoch":"2026-09-19T13:50:24.825408Z","epoch_age_seconds":105623,"freshness":"FRESH","line1":"1 50479U 21132L   26262.57667622  .00000488  00000+0  13422-2 0  9996","line2":"2 50479  87.8967   2.3058 0002203 109.4177 250.7189 13.11418018227973","mean_motion":13.11418018,"eccentricity":0.0002203,"inclination_deg":87.8967,"raan_deg":2.3058,"arg_perigee_deg":109.4177,"mean_anomaly_deg":250.7189,"bstar":0.0013422,"rev_number":22797,"period_min":109.80480519828,"perigee_km":1216.0051969485,"apogee_km":1219.3519132821,"semimajor_km":7595.8155551153,"source":"CELESTRAK","updated_at":"2026-09-20T09:00:44.701365Z"}}